Date String (YYYY-MM-DD hh:mm:ss) UTC,Instrument flags,absolute air pressure of the measurement (hPa),sample flow rate (lpm),inlet stack bypass flow (lpm),air temperature of the measurement (°C),ambient temperature measured by the external sensor (°C),aerosol sample conditioner tube jacket temperature (°C),OPC LED temperature (°C),internal box temperature (°C),relative humidity of the measurement (%),span deviation,mass concentration of particles derived from Lorenz-Mie calculation of OPC scattering (μg/m³),mass concentration of particles derived from Lorenz-Mie calculation of OPC scattering (μg/m³),mass concentration of particles derived from Lorenz-Mie calculation of OPC scattering (μg/m³)
DateTimeUTC,F1_M11,P_M11,Q1_M11,Q2_M11,T1_M11,T2_M11,T3_M11,T4_M11,T5_M11,U1_M11,ZSPAN_M11,X0_M11,X2_M11,X1_M11
2023-09-20 03:00:00,SystemResetWarning,0829.8,5.00,000.00,028.4,027.2,000.0,036.8,030.0,19.2,0000.0,0001.75,0001.16,0000.98
2023-09-20 03:01:00,SystemResetWarning,0829.8,5.00,000.00,028.4,027.2,000.0,036.9,030.0,19.0,0000.0,0001.78,0001.15,0000.97
2023-09-20 03:02:00,SystemResetWarning,0829.8,4.99,000.00,028.4,027.0,000.0,036.8,030.0,19.0,0000.0,0001.82,0001.17,0000.98
2023-09-20 03:03:00,SystemResetWarning,0829.8,5.00,000.00,028.3,025.4,000.0,036.8,029.5,19.1,0000.0,0001.82,0001.16,0000.98
2023-09-20 03:04:00,SystemResetWarning,0829.8,5.00,000.00,028.2,024.3,000.0,036.7,029.3,19.2,0000.0,0001.76,0001.15,0000.98
2023-09-20 03:05:00,SystemResetWarning,0829.8,5.01,000.00,028.1,024.3,000.0,036.7,029.3,19.6,0000.0,0001.75,0001.15,0000.98
2023-09-20 03:06:00,SystemResetWarning,0829.8,5.01,000.00,028.0,024.5,000.0,036.6,029.3,19.8,0000.0,0001.71,0001.16,0000.98
2023-09-20 03:07:00,SystemResetWarning,0829.8,5.00,000.00,028.0,024.8,000.0,036.6,029.4,19.9,0000.0,0001.70,0001.18,0000.98
2023-09-20 03:08:00,SystemResetWarning,0829.7,5.00,000.00,027.9,025.1,000.0,036.6,029.4,19.9,0000.0,0001.72,0001.20,0000.99
2023-09-20 03:09:00,SystemResetWarning,0829.7,4.99,000.00,027.9,025.4,000.0,036.5,029.5,19.8,0000.0,0001.64,0001.19,0001.01
2023-09-20 03:10:00,SystemResetWarning,0829.7,4.99,000.00,027.9,025.7,000.0,036.5,029.5,19.8,0000.0,0001.78,0001.21,0001.01
2023-09-20 03:11:00,SystemResetWarning,0829.7,5.01,000.00,027.9,025.9,000.0,036.5,029.5,19.7,0000.0,0001.78,0001.21,0001.02
2023-09-20 03:12:00,SystemResetWarning,0829.7,5.00,000.00,027.9,026.0,000.0,036.5,029.5,19.3,0000.0,0001.77,0001.22,0001.03
2023-09-20 03:13:00,SystemResetWarning,0829.7,5.00,000.00,028.0,026.2,000.0,036.4,029.6,19.0,0000.0,0001.75,0001.22,0001.03
2023-09-20 03:14:00,SystemResetWarning,0829.7,5.00,000.00,028.0,026.3,000.0,036.4,029.6,19.2,0000.0,0001.70,0001.20,0001.03
2023-09-20 03:15:00,SystemResetWarning,0829.7,5.00,000.00,028.0,026.4,000.0,036.4,029.6,18.7,0000.0,0001.89,0001.22,0001.03
2023-09-20 03:16:00,SystemResetWarning,0829.7,4.99,000.00,028.0,026.5,000.0,036.4,029.6,18.3,0000.0,0002.05,0001.26,0001.04
2023-09-20 03:17:00,SystemResetWarning,0829.7,4.99,000.00,028.0,026.5,000.0,036.4,029.7,18.5,0000.0,0002.04,0001.26,0001.04
2023-09-20 03:18:00,SystemResetWarning,0829.7,5.01,000.00,028.0,026.6,000.0,036.4,029.7,18.8,0000.0,0002.06,0001.26,0001.04
2023-09-20 03:19:00,SystemResetWarning,0829.7,5.01,000.00,028.1,026.6,000.0,036.4,029.7,18.9,0000.0,0002.06,0001.26,0001.05
2023-09-20 03:20:00,SystemResetWarning,0829.6,5.00,000.00,028.1,026.7,000.0,036.4,029.7,18.7,0000.0,0002.04,0001.25,0001.04
2023-09-20 03:21:00,SystemResetWarning,0829.7,4.99,000.00,028.1,026.7,000.0,036.4,029.8,18.8,0000.0,0002.03,0001.25,0001.05
2023-09-20 03:22:00,SystemResetWarning,0829.7,4.99,000.00,028.1,026.7,000.0,036.4,029.8,18.9,0000.0,0001.97,0001.24,0001.05
2023-09-20 03:23:00,SystemResetWarning,0829.7,5.00,000.00,028.1,026.8,000.0,036.5,029.8,18.9,0000.0,0001.98,0001.26,0001.06
2023-09-20 03:24:00,SystemResetWarning,0829.7,5.00,000.00,028.2,026.8,000.0,036.5,029.8,19.0,0000.0,0002.07,0001.30,0001.07
2023-09-20 03:25:00,SystemResetWarning,0829.7,5.00,000.00,028.2,026.8,000.0,036.5,029.9,19.1,0000.0,0002.16,0001.34,0001.08
2023-09-20 03:26:00,SystemResetWarning,0829.7,5.00,000.00,028.2,026.9,000.0,036.5,029.9,19.1,0000.0,0002.02,0001.32,0001.08
2023-09-20 03:27:00,SystemResetWarning,0829.7,5.01,000.00,028.2,026.9,000.0,036.5,029.9,19.1,0000.0,0001.88,0001.32,0001.10
2023-09-20 03:28:00,SystemResetWarning,0829.7,5.00,000.00,028.2,026.9,000.0,036.5,029.9,19.1,0000.0,0001.93,0001.33,0001.11
2023-09-20 03:29:00,SystemResetWarning,0829.7,5.00,000.00,028.2,026.9,000.0,036.5,029.9,19.0,0000.0,0001.99,0001.36,0001.12
2023-09-20 03:30:00,SystemResetWarning,0829.7,5.01,000.00,028.3,027.0,000.0,036.5,030.0,19.0,0000.0,0001.99,0001.36,0001.12
2023-09-20 03:31:00,SystemResetWarning,0829.7,5.00,000.00,028.3,027.0,000.0,036.6,030.0,19.0,0000.0,0002.03,0001.38,0001.13
2023-09-20 03:32:00,SystemResetWarning,0829.7,5.00,000.00,028.3,027.0,000.0,036.6,030.0,19.0,0000.0,0002.01,0001.41,0001.14
2023-09-20 03:33:00,SystemResetWarning,0829.7,5.00,000.00,028.3,027.0,000.0,036.6,030.0,19.0,0000.0,0002.08,0001.45,0001.16
2023-09-20 03:34:00,SystemResetWarning,0829.8,5.00,000.00,028.3,027.1,000.0,036.6,030.0,19.0,0000.0,0002.11,0001.46,0001.17
2023-09-20 03:35:00,SystemResetWarning,0829.8,5.00,000.00,028.4,027.1,000.0,036.6,030.0,19.0,0000.0,0002.12,0001.46,0001.18
2023-09-20 03:36:00,SystemResetWarning,0829.7,5.01,000.00,028.4,027.1,000.0,036.6,030.0,18.9,0000.0,0002.05,0001.44,0001.18
2023-09-20 03:37:00,SystemResetWarning,0829.7,5.01,000.00,028.4,027.1,000.0,036.7,030.0,19.0,0000.0,0002.20,0001.50,0001.19
2023-09-20 03:38:00,SystemResetWarning,0829.7,5.00,000.00,028.4,027.1,000.0,036.7,030.0,19.0,0000.0,0002.31,0001.51,0001.19
2023-09-20 03:39:00,SystemResetWarning,0829.7,4.99,000.00,028.4,027.1,000.0,036.7,030.0,18.8,0000.0,0002.37,0001.53,0001.19
2023-09-20 03:40:00,SystemResetWarning,0829.7,4.99,000.00,028.4,027.1,000.0,036.7,030.1,18.1,0000.0,0002.34,0001.52,0001.19
2023-09-20 03:41:00,SystemResetWarning,0829.7,5.01,000.00,028.4,027.1,000.0,036.7,030.1,17.6,0000.0,0002.34,0001.53,0001.21
2023-09-20 03:42:00,SystemResetWarning,0829.7,5.01,000.00,028.4,027.1,000.0,036.7,030.1,17.9,0000.0,0002.31,0001.52,0001.21
2023-09-20 03:43:00,SystemResetWarning,0829.7,5.01,000.00,028.5,027.2,000.0,036.7,030.1,17.6,0000.0,0002.31,0001.51,0001.20
2023-09-20 03:44:00,SystemResetWarning,0829.7,5.00,000.00,028.5,027.2,000.0,036.8,030.2,17.2,0000.0,0002.26,0001.49,0001.19
2023-09-20 03:45:00,SystemResetWarning,0829.7,4.99,000.00,028.5,027.2,000.0,036.8,030.2,17.5,0000.0,0002.20,0001.48,0001.19
2023-09-20 03:46:00,SystemResetWarning,0829.7,4.99,000.00,028.5,027.2,000.0,036.8,030.2,17.8,0000.0,0002.16,0001.47,0001.19
2023-09-20 03:47:00,SystemResetWarning,0829.7,5.00,000.00,028.5,027.2,000.0,036.8,030.2,18.7,0000.0,0002.25,0001.50,0001.20
2023-09-20 03:48:00,SystemResetWarning,0829.7,5.01,000.00,028.5,027.2,000.0,036.8,030.2,19.2,0000.0,0002.18,0001.49,0001.21
2023-09-20 03:49:00,SystemResetWarning,0829.7,5.01,000.00,028.5,027.2,000.0,036.8,030.2,19.3,0000.0,0002.15,0001.51,0001.23
2023-09-20 03:50:00,SystemResetWarning,0829.7,5.00,000.00,028.5,027.2,000.0,036.9,030.2,18.7,0000.0,0002.06,0001.50,0001.24
2023-09-20 03:51:00,SystemResetWarning,0829.7,5.00,000.00,028.6,027.2,000.0,036.9,030.2,19.0,0000.0,0002.24,0001.53,0001.26
2023-09-20 03:52:00,SystemResetWarning,0829.7,5.00,000.00,028.6,027.3,000.0,036.9,030.2,19.2,0000.0,0002.34,0001.54,0001.27
2023-09-20 03:53:00,SystemResetWarning,0829.7,5.00,000.00,028.6,027.3,000.0,036.9,030.3,18.7,0000.0,0002.36,0001.55,0001.27
2023-09-20 03:54:00,SystemResetWarning,0829.7,5.00,000.00,028.6,027.3,000.0,036.9,030.3,18.4,0000.0,0002.36,0001.56,0001.29
2023-09-20 03:55:00,SystemResetWarning,0829.7,4.99,000.00,028.6,027.3,000.0,036.9,030.3,18.5,0000.0,0002.41,0001.58,0001.29
2023-09-20 03:56:00,SystemResetWarning,0829.7,4.99,000.00,028.6,026.2,000.0,036.9,030.0,19.0,0000.0,0002.52,0001.59,0001.29
2023-09-20 03:57:00,SystemResetWarning,0829.7,5.01,000.00,028.4,024.6,000.0,036.8,029.5,19.4,0000.0,0002.56,0001.61,0001.31
2023-09-20 03:58:00,SystemResetWarning,0829.7,5.00,000.00,028.3,024.3,000.0,036.8,029.5,19.6,0000.0,0002.62,0001.60,0001.31
2023-09-20 03:59:00,SystemResetWarning,0829.7,5.01,000.00,028.2,024.5,000.0,036.7,029.5,19.7,0000.0,0002.65,0001.62,0001.32
